Time,TemperatureF,DewpointF,PressureIn,WindDirection,WindDirectionDegrees,WindSpeedMPH,WindSpeedGustMPH,Humidity,HourlyPrecipIn,Conditions,Clouds,dailyrainin,SolarRadiationWatts/m^2,SoftwareType,DateUTC
2013-05-22 00:01:00,76.5,76.5,30.03,ENE,76,0.0,4.0,100,0.00,,,3.08,0.0,meteohub,2013-05-22 04:01:00,
2013-05-22 00:06:00,76.5,76.5,30.03,ENE,75,0.0,4.0,100,0.00,,,0.00,0.0,meteohub,2013-05-22 04:06:00,
2013-05-22 00:11:00,76.5,76.5,30.03,ENE,75,0.0,0.0,100,0.00,,,0.00,0.0,meteohub,2013-05-22 04:11:00,
2013-05-22 00:16:00,76.5,76.5,30.02,ENE,75,0.0,0.0,100,0.00,,,0.00,0.0,meteohub,2013-05-22 04:16:00,
2013-05-22 00:21:00,76.3,76.3,30.02,ENE,75,0.0,0.0,100,0.00,,,0.00,0.0,meteohub,2013-05-22 04:21:00,
2013-05-22 00:26:00,76.3,76.3,30.02,ENE,75,0.0,0.0,100,0.00,,,0.00,0.0,meteohub,2013-05-22 04:26:00,
2013-05-22 00:31:00,76.3,76.3,30.02,ENE,75,0.0,0.0,100,0.00,,,0.00,0.0,meteohub,2013-05-22 04:31:00,
2013-05-22 00:36:00,76.3,76.3,30.02,ENE,75,0.0,0.0,100,0.00,,,0.00,0.0,meteohub,2013-05-22 04:36:00,
2013-05-22 00:41:00,76.5,76.5,30.02,ENE,78,0.0,0.0,100,0.00,,,0.00,0.0,meteohub,2013-05-22 04:41:00,
2013-05-22 00:46:00,76.5,76.5,30.01,ENE,78,0.0,0.0,100,0.00,,,0.00,0.0,meteohub,2013-05-22 04:46:00,
2013-05-22 00:52:00,76.5,76.5,30.01,East,99,0.0,0.0,100,0.00,,,0.00,0.0,meteohub,2013-05-22 04:52:00,
2013-05-22 00:57:00,76.5,76.5,30.01,ESE,103,0.0,0.0,100,0.00,,,0.00,0.0,meteohub,2013-05-22 04:57:00,
2013-05-22 01:02:00,76.6,76.6,30.01,ESE,103,0.0,0.0,100,0.00,,,0.00,0.0,meteohub,2013-05-22 05:02:00,
2013-05-22 01:07:00,76.6,76.6,30.01,East,93,0.0,0.0,100,0.00,,,0.00,0.0,meteohub,2013-05-22 05:07:00,
2013-05-22 01:12:00,76.8,76.5,30.01,ESE,106,0.0,1.0,99,0.00,,,0.00,0.0,meteohub,2013-05-22 05:12:00,
2013-05-22 01:17:00,76.8,76.5,30.00,NE,54,0.0,8.0,99,0.00,,,0.00,0.0,meteohub,2013-05-22 05:17:00,
2013-05-22 01:22:00,77.0,76.6,30.00,ENE,69,0.0,8.0,99,0.00,,,0.00,0.0,meteohub,2013-05-22 05:22:00,
2013-05-22 01:27:00,77.0,76.6,30.00,ENE,71,0.0,8.0,99,0.00,,,0.00,0.0,meteohub,2013-05-22 05:27:00,
2013-05-22 01:32:00,76.8,76.3,29.99,ENE,71,0.0,0.0,98,0.00,,,0.00,0.0,meteohub,2013-05-22 05:32:00,
2013-05-22 01:37:00,76.8,76.3,29.99,ENE,71,0.0,0.0,98,0.00,,,0.00,0.0,meteohub,2013-05-22 05:37:00,
2013-05-22 01:42:00,76.8,76.3,29.99,ENE,71,0.0,0.0,98,0.00,,,0.00,0.0,meteohub,2013-05-22 05:42:00,
2013-05-22 01:47:00,76.6,76.1,29.99,ENE,71,0.0,0.0,98,0.00,,,0.00,0.0,meteohub,2013-05-22 05:47:00,
2013-05-22 01:52:00,76.6,76.1,29.99,ENE,71,0.0,0.0,98,0.00,,,0.00,0.0,meteohub,2013-05-22 05:52:00,
2013-05-22 01:57:00,76.6,76.1,29.99,ENE,71,0.0,0.0,98,0.00,,,0.00,0.0,meteohub,2013-05-22 05:57:00,
2013-05-22 02:02:00,76.6,76.1,29.99,ENE,71,0.0,0.0,98,0.00,,,0.00,0.0,meteohub,2013-05-22 06:02:00,
2013-05-22 02:07:00,76.6,76.3,29.99,ENE,71,0.0,0.0,99,0.00,,,0.00,0.0,meteohub,2013-05-22 06:07:00,
2013-05-22 02:12:00,76.5,76.1,29.99,ENE,71,0.0,0.0,99,0.00,,,0.00,0.0,meteohub,2013-05-22 06:12:00,
2013-05-22 02:17:00,76.3,75.9,29.99,ENE,71,0.0,0.0,99,0.00,,,0.00,0.0,meteohub,2013-05-22 06:17:00,
2013-05-22 02:22:00,76.1,75.7,29.99,ENE,71,0.0,0.0,99,0.00,,,0.00,0.0,meteohub,2013-05-22 06:22:00,
2013-05-22 02:27:00,76.1,75.7,29.99,ENE,71,0.0,0.0,99,0.00,,,0.00,0.0,meteohub,2013-05-22 06:27:00,
2013-05-22 02:32:00,76.1,75.7,29.98,ENE,71,0.0,0.0,99,0.00,,,0.00,0.0,meteohub,2013-05-22 06:32:00,
2013-05-22 02:37:00,76.1,75.7,29.98,ENE,71,0.0,0.0,99,0.00,,,0.00,0.0,meteohub,2013-05-22 06:37:00,
2013-05-22 02:42:00,76.1,76.1,29.98,NE,47,0.0,0.0,100,0.00,,,0.00,0.0,meteohub,2013-05-22 06:42:00,
2013-05-22 02:47:00,76.3,76.3,29.98,ENE,73,0.0,6.0,100,0.00,,,0.00,0.0,meteohub,2013-05-22 06:47:00,
2013-05-22 02:52:00,76.3,76.3,29.98,East,90,0.0,6.0,100,0.00,,,0.00,0.0,meteohub,2013-05-22 06:52:00,
2013-05-22 02:57:00,76.1,76.1,29.98,East,90,0.0,6.0,100,0.00,,,0.00,0.0,meteohub,2013-05-22 06:57:00,
2013-05-22 03:02:00,76.3,76.3,29.98,East,80,0.0,0.0,100,0.00,,,0.00,0.0,meteohub,2013-05-22 07:02:00,
2013-05-22 03:07:00,76.3,76.3,29.98,East,82,0.0,0.0,100,0.00,,,0.00,0.0,meteohub,2013-05-22 07:07:00,
2013-05-22 03:12:00,76.3,76.3,29.98,ENE,68,0.0,1.0,100,0.00,,,0.00,0.0,meteohub,2013-05-22 07:12:00,
2013-05-22 03:17:00,76.1,76.1,29.98,NE,56,6.0,6.0,100,0.01,,,0.01,0.0,meteohub,2013-05-22 07:17:00,
2013-05-22 03:22:00,76.1,76.1,29.98,ESE,114,0.0,7.0,100,0.01,,,0.01,0.0,meteohub,2013-05-22 07:22:00,
2013-05-22 03:27:00,75.7,75.7,29.99,East,99,7.0,7.0,100,0.01,,,0.01,0.0,meteohub,2013-05-22 07:27:00,
2013-05-22 03:32:00,75.6,75.6,29.99,ESE,104,3.0,11.0,100,0.02,,,0.02,0.0,meteohub,2013-05-22 07:32:00,
2013-05-22 03:37:00,75.4,75.4,29.99,East,79,7.0,12.0,100,0.02,,,0.02,0.0,meteohub,2013-05-22 07:37:00,
2013-05-22 03:42:00,75.0,75.0,29.98,ENE,62,6.0,13.0,100,0.02,,,0.02,0.0,meteohub,2013-05-22 07:42:00,
2013-05-22 03:47:00,74.8,74.8,29.98,ESE,104,4.0,13.0,100,0.02,,,0.02,0.0,meteohub,2013-05-22 07:47:00,
2013-05-22 03:52:00,74.8,74.8,29.98,ESE,116,0.0,12.0,100,0.02,,,0.02,0.0,meteohub,2013-05-22 07:52:00,
2013-05-22 03:57:00,74.8,74.8,29.98,ESE,116,0.0,12.0,100,0.02,,,0.02,0.0,meteohub,2013-05-22 07:57:00,
2013-05-22 04:02:00,74.7,74.7,29.98,SE,130,0.0,12.0,100,0.02,,,0.02,0.0,meteohub,2013-05-22 08:02:00,
2013-05-22 04:08:00,74.7,74.7,29.98,SE,131,0.0,10.0,100,0.02,,,0.02,0.0,meteohub,2013-05-22 08:08:00,
2013-05-22 04:13:00,74.7,74.7,29.98,SE,131,0.0,6.0,100,0.01,,,0.02,0.0,meteohub,2013-05-22 08:13:00,
2013-05-22 04:18:00,74.7,74.7,29.98,SE,130,0.0,0.0,100,0.01,,,0.02,0.0,meteohub,2013-05-22 08:18:00,
2013-05-22 04:23:00,74.7,74.7,29.98,SE,130,0.0,0.0,100,0.01,,,0.02,0.0,meteohub,2013-05-22 08:23:00,
2013-05-22 04:28:00,74.7,74.7,29.98,SE,130,0.0,0.0,100,0.01,,,0.02,0.0,meteohub,2013-05-22 08:28:00,
2013-05-22 04:33:00,74.7,74.7,29.98,SE,130,0.0,0.0,100,0.00,,,0.02,0.0,meteohub,2013-05-22 08:33:00,
2013-05-22 04:38:00,74.7,74.7,29.98,SE,130,0.0,0.0,100,0.00,,,0.02,0.0,meteohub,2013-05-22 08:38:00,
2013-05-22 04:43:00,74.7,74.7,29.99,SE,131,0.0,0.0,100,0.00,,,0.02,0.0,meteohub,2013-05-22 08:43:00,
2013-05-22 04:48:00,74.8,74.8,29.99,SE,133,0.0,0.0,100,0.00,,,0.02,0.0,meteohub,2013-05-22 08:48:00,
2013-05-22 04:53:00,74.8,74.8,29.99,SE,127,0.0,0.0,100,0.00,,,0.02,0.0,meteohub,2013-05-22 08:53:00,
2013-05-22 04:58:00,74.8,74.8,29.98,SE,130,0.0,1.0,100,0.00,,,0.02,0.0,meteohub,2013-05-22 08:58:00,
2013-05-22 05:03:00,74.7,74.7,29.98,SSE,151,0.0,8.0,100,0.00,,,0.02,0.0,meteohub,2013-05-22 09:03:00,
2013-05-22 05:08:00,74.7,74.7,29.98,SE,130,0.0,8.0,100,0.00,,,0.02,0.0,meteohub,2013-05-22 09:08:00,
2013-05-22 05:13:00,74.8,74.8,29.98,SE,134,0.0,8.0,100,0.00,,,0.02,0.0,meteohub,2013-05-22 09:13:00,
2013-05-22 05:18:00,74.8,74.8,29.98,SE,134,0.0,8.0,100,0.00,,,0.02,0.0,meteohub,2013-05-22 09:18:00,
2013-05-22 05:23:00,74.8,74.8,29.98,SE,134,0.0,6.0,100,0.00,,,0.02,0.0,meteohub,2013-05-22 09:23:00,
2013-05-22 05:29:00,75.0,75.0,29.99,SE,134,0.0,0.0,100,0.00,,,0.02,0.0,meteohub,2013-05-22 09:29:00,
2013-05-22 05:34:00,75.0,75.0,29.99,SE,134,0.0,0.0,100,0.00,,,0.02,0.0,meteohub,2013-05-22 09:34:00,
2013-05-22 05:39:00,75.0,75.0,29.99,SE,134,0.0,0.0,100,0.00,,,0.02,0.0,meteohub,2013-05-22 09:39:00,
2013-05-22 05:44:00,75.0,75.0,29.99,SE,134,0.0,0.0,100,0.00,,,0.02,0.0,meteohub,2013-05-22 09:44:00,
2013-05-22 05:49:00,75.0,75.0,29.99,SE,134,0.0,0.0,100,0.00,,,0.02,0.0,meteohub,2013-05-22 09:49:00,
2013-05-22 05:54:00,75.4,75.4,29.99,SE,134,0.0,0.0,100,0.00,,,0.02,0.0,meteohub,2013-05-22 09:54:00,
2013-05-22 05:59:00,75.4,75.4,29.99,SE,134,0.0,0.0,100,0.00,,,0.02,0.0,meteohub,2013-05-22 09:59:00,
2013-05-22 06:04:00,74.7,74.7,29.99,NE,41,12.0,0.0,100,0.02,,,0.04,0.0,meteohub,2013-05-22 10:04:00,
2013-05-22 06:09:00,74.1,74.1,29.99,ENE,59,11.0,18.0,100,0.03,,,0.05,5.0,meteohub,2013-05-22 10:09:00,
2013-05-22 06:14:00,74.5,74.5,30.00,ENE,75,7.0,18.0,100,0.05,,,0.07,9.0,meteohub,2013-05-22 10:14:00,
2013-05-22 06:19:00,74.5,74.5,30.00,ENE,61,0.0,18.0,100,0.07,,,0.09,11.0,meteohub,2013-05-22 10:19:00,
2013-05-22 06:24:00,74.7,74.7,30.00,East,80,0.0,16.0,100,0.09,,,0.11,12.0,meteohub,2013-05-22 10:24:00,
2013-05-22 06:29:00,74.7,74.7,30.01,East,89,0.0,16.0,100,0.12,,,0.14,25.0,meteohub,2013-05-22 10:29:00,
2013-05-22 06:34:00,74.8,74.8,30.01,East,93,0.0,9.0,100,0.14,,,0.16,30.0,meteohub,2013-05-22 10:34:00,
2013-05-22 06:39:00,75.0,75.0,30.01,East,90,0.0,9.0,100,0.14,,,0.16,37.0,meteohub,2013-05-22 10:39:00,
2013-05-22 06:44:00,75.0,75.0,30.01,East,92,0.0,0.0,100,0.14,,,0.16,32.0,meteohub,2013-05-22 10:44:00,
2013-05-22 06:49:00,75.4,75.4,30.01,ESE,102,0.0,0.0,100,0.14,,,0.16,33.0,meteohub,2013-05-22 10:49:00,
2013-05-22 06:54:00,75.4,75.4,30.01,ESE,109,0.0,0.0,100,0.14,,,0.16,51.0,meteohub,2013-05-22 10:54:00,
2013-05-22 07:00:00,75.4,75.4,30.02,ESE,109,0.0,0.0,100,0.14,,,0.16,51.0,meteohub,2013-05-22 11:00:00,
2013-05-22 07:05:00,75.6,75.6,30.02,ESE,110,0.0,1.0,100,0.12,,,0.16,39.0,meteohub,2013-05-22 11:05:00,
2013-05-22 07:10:00,75.6,75.6,30.02,SE,136,0.0,1.0,100,0.11,,,0.16,79.0,meteohub,2013-05-22 11:10:00,
2013-05-22 07:15:00,75.4,75.4,30.02,ENE,72,0.0,0.0,100,0.08,,,0.16,84.0,meteohub,2013-05-22 11:15:00,
2013-05-22 07:20:00,75.7,75.7,30.02,ENE,59,0.0,7.0,100,0.06,,,0.16,99.0,meteohub,2013-05-22 11:20:00,
2013-05-22 07:25:00,75.7,75.7,30.02,East,80,0.0,7.0,100,0.05,,,0.16,106.0,meteohub,2013-05-22 11:25:00,
2013-05-22 07:30:00,75.9,75.9,30.03,ENE,75,0.0,7.0,100,0.01,,,0.16,130.0,meteohub,2013-05-22 11:30:00,
2013-05-22 07:35:00,75.9,75.9,30.03,East,86,0.0,2.0,100,0.00,,,0.16,162.0,meteohub,2013-05-22 11:35:00,
2013-05-22 07:40:00,76.1,76.1,30.03,ENE,59,0.0,1.0,100,0.00,,,0.16,164.0,meteohub,2013-05-22 11:40:00,
2013-05-22 07:45:00,76.3,76.3,30.04,ENE,71,0.0,1.0,100,0.00,,,0.16,157.0,meteohub,2013-05-22 11:45:00,
2013-05-22 07:50:00,76.3,76.3,30.04,ENE,69,0.0,1.0,100,0.00,,,0.16,183.0,meteohub,2013-05-22 11:50:00,
2013-05-22 07:55:00,76.3,76.3,30.04,East,88,9.0,9.0,100,0.00,,,0.16,130.0,meteohub,2013-05-22 11:55:00,
2013-05-22 08:00:00,76.5,76.5,30.04,ESE,110,7.0,10.0,100,0.00,,,0.16,120.0,meteohub,2013-05-22 12:00:00,
2013-05-22 08:05:00,76.5,76.5,30.04,East,100,5.0,11.0,100,0.00,,,0.16,227.0,meteohub,2013-05-22 12:05:00,
2013-05-22 08:10:00,76.6,76.6,30.04,East,88,5.0,11.0,100,0.00,,,0.16,334.0,meteohub,2013-05-22 12:10:00,
2013-05-22 08:15:00,76.6,76.6,30.03,East,90,0.0,11.0,100,0.00,,,0.16,278.0,meteohub,2013-05-22 12:15:00,
2013-05-22 08:20:00,76.8,76.8,30.03,ESE,120,5.0,11.0,100,0.00,,,0.16,111.0,meteohub,2013-05-22 12:20:00,
2013-05-22 08:25:00,76.8,76.8,30.03,ENE,75,7.0,11.0,100,0.00,,,0.16,111.0,meteohub,2013-05-22 12:25:00,
2013-05-22 08:30:00,76.5,76.5,30.04,ENE,72,5.0,14.0,100,0.00,,,0.16,169.0,meteohub,2013-05-22 12:30:00,
2013-05-22 08:35:00,75.7,75.7,30.04,East,96,6.0,14.0,100,0.00,,,0.16,174.0,meteohub,2013-05-22 12:35:00,
2013-05-22 08:40:00,75.7,75.7,30.04,East,83,0.0,14.0,100,0.01,,,0.17,160.0,meteohub,2013-05-22 12:40:00,
2013-05-22 08:45:00,76.1,76.1,30.03,East,85,0.0,13.0,100,0.01,,,0.17,84.0,meteohub,2013-05-22 12:45:00,
2013-05-22 08:50:00,76.5,76.5,30.03,East,83,0.0,11.0,100,0.01,,,0.17,201.0,meteohub,2013-05-22 12:50:00,
2013-05-22 08:55:00,76.8,76.8,30.03,ESE,116,0.0,8.0,100,0.01,,,0.17,102.0,meteohub,2013-05-22 12:55:00,
2013-05-22 09:00:00,76.8,76.8,30.03,East,90,5.0,6.0,100,0.02,,,0.18,169.0,meteohub,2013-05-22 13:00:00,
2013-05-22 09:05:00,77.0,77.0,30.03,ESE,112,0.0,7.0,100,0.02,,,0.18,216.0,meteohub,2013-05-22 13:05:00,
2013-05-22 09:10:00,77.4,77.4,30.03,East,99,0.0,7.0,100,0.02,,,0.18,241.0,meteohub,2013-05-22 13:10:00,
2013-05-22 09:15:00,77.5,77.5,30.04,ESE,110,0.0,7.0,100,0.02,,,0.18,347.0,meteohub,2013-05-22 13:15:00,
2013-05-22 09:20:00,77.9,77.9,30.04,East,99,0.0,5.0,100,0.02,,,0.18,259.0,meteohub,2013-05-22 13:20:00,
2013-05-22 09:25:00,78.1,78.1,30.04,SE,128,0.0,6.0,100,0.02,,,0.18,164.0,meteohub,2013-05-22 13:25:00,
2013-05-22 09:30:00,78.1,78.1,30.04,East,93,2.0,6.0,100,0.02,,,0.18,102.0,meteohub,2013-05-22 13:30:00,
2013-05-22 09:35:00,78.1,78.1,30.04,East,79,0.0,11.0,100,0.02,,,0.18,139.0,meteohub,2013-05-22 13:35:00,
2013-05-22 09:40:00,77.9,77.9,30.04,ESE,109,0.0,11.0,100,0.01,,,0.18,113.0,meteohub,2013-05-22 13:40:00,
2013-05-22 09:45:00,78.1,78.1,30.04,ENE,71,0.0,11.0,100,0.02,,,0.19,151.0,meteohub,2013-05-22 13:45:00,
2013-05-22 09:50:00,78.1,77.7,30.04,ENE,75,6.0,11.0,99,0.02,,,0.19,178.0,meteohub,2013-05-22 13:50:00,
2013-05-22 09:55:00,78.1,77.7,30.04,SE,127,0.0,11.0,99,0.01,,,0.19,158.0,meteohub,2013-05-22 13:55:00,
2013-05-22 10:00:00,78.4,78.1,30.05,SE,130,0.0,10.0,99,0.01,,,0.19,113.0,meteohub,2013-05-22 14:00:00,
2013-05-22 10:05:00,78.4,78.1,30.05,ESE,112,0.0,9.0,99,0.01,,,0.19,157.0,meteohub,2013-05-22 14:05:00,
2013-05-22 10:11:00,78.3,77.7,30.05,SE,131,11.0,14.0,98,0.01,,,0.19,183.0,meteohub,2013-05-22 14:11:00,
2013-05-22 10:16:00,78.4,77.9,30.04,SE,126,6.0,14.0,98,0.01,,,0.19,174.0,meteohub,2013-05-22 14:16:00,
2013-05-22 10:21:00,78.3,77.4,30.04,ENE,71,5.0,16.0,97,0.01,,,0.19,120.0,meteohub,2013-05-22 14:21:00,
2013-05-22 10:26:00,78.3,77.4,30.04,NE,45,6.0,16.0,97,0.02,,,0.20,157.0,meteohub,2013-05-22 14:26:00,
2013-05-22 10:31:00,77.9,77.0,30.05,ENE,69,1.0,16.0,97,0.03,,,0.21,151.0,meteohub,2013-05-22 14:31:00,
2013-05-22 10:36:00,77.7,76.8,30.05,ENE,71,0.0,10.0,97,0.03,,,0.21,113.0,meteohub,2013-05-22 14:36:00,
2013-05-22 10:41:00,77.9,77.4,30.05,East,96,6.0,10.0,98,0.04,,,0.22,183.0,meteohub,2013-05-22 14:41:00,
2013-05-22 10:46:00,77.9,77.4,30.05,East,86,5.0,12.0,98,0.03,,,0.22,220.0,meteohub,2013-05-22 14:46:00,
2013-05-22 10:51:00,77.9,77.4,30.05,East,79,2.0,12.0,98,0.03,,,0.22,204.0,meteohub,2013-05-22 14:51:00,
2013-05-22 10:56:00,78.1,77.5,30.05,ESE,103,0.0,12.0,98,0.03,,,0.22,139.0,meteohub,2013-05-22 14:56:00,
2013-05-22 11:01:00,78.3,77.7,30.04,ESE,104,1.0,12.0,98,0.03,,,0.22,93.0,meteohub,2013-05-22 15:01:00,
2013-05-22 11:06:00,78.3,77.7,30.04,ENE,78,0.0,12.0,98,0.03,,,0.22,160.0,meteohub,2013-05-22 15:06:00,
2013-05-22 11:11:00,78.4,77.9,30.04,ENE,76,0.0,12.0,98,0.03,,,0.22,86.0,meteohub,2013-05-22 15:11:00,
2013-05-22 11:16:00,78.4,77.9,30.04,East,83,0.0,7.0,98,0.04,,,0.23,137.0,meteohub,2013-05-22 15:16:00,
2013-05-22 11:21:00,78.3,77.4,30.04,ESE,110,0.0,8.0,97,0.03,,,0.23,107.0,meteohub,2013-05-22 15:21:00,
2013-05-22 11:26:00,78.1,77.2,30.04,SE,127,3.0,12.0,97,0.02,,,0.23,113.0,meteohub,2013-05-22 15:26:00,
2013-05-22 11:32:00,77.9,77.0,30.05,ENE,71,3.0,13.0,97,0.08,,,0.29,113.0,meteohub,2013-05-22 15:32:00,
2013-05-22 11:37:00,77.9,77.4,30.05,NE,55,0.0,13.0,98,0.11,,,0.31,176.0,meteohub,2013-05-22 15:37:00,
2013-05-22 11:42:00,77.9,77.4,30.05,East,80,2.0,13.0,98,0.11,,,0.33,114.0,meteohub,2013-05-22 15:42:00,
2013-05-22 11:47:00,77.7,77.2,30.04,ENE,65,7.0,13.0,98,0.11,,,0.33,102.0,meteohub,2013-05-22 15:47:00,
2013-05-22 11:52:00,78.1,77.5,30.04,ENE,68,7.0,13.0,98,0.11,,,0.33,301.0,meteohub,2013-05-22 15:52:00,
2013-05-22 11:57:00,78.1,77.5,30.04,East,85,17.0,17.0,98,0.11,,,0.33,176.0,meteohub,2013-05-22 15:57:00,
2013-05-22 12:02:00,77.5,76.3,30.04,ENE,75,13.0,19.0,96,0.11,,,0.33,179.0,meteohub,2013-05-22 16:02:00,
2013-05-22 12:07:00,77.2,75.9,30.04,East,90,11.0,21.0,96,0.11,,,0.33,259.0,meteohub,2013-05-22 16:07:00,
2013-05-22 12:12:00,77.7,76.5,30.04,ESE,103,2.0,21.0,96,0.10,,,0.33,190.0,meteohub,2013-05-22 16:12:00,
2013-05-22 12:17:00,77.9,76.6,30.04,SE,127,10.0,20.0,96,0.10,,,0.33,150.0,meteohub,2013-05-22 16:17:00,
2013-05-22 12:22:00,77.9,76.3,30.04,ENE,75,12.0,20.0,95,0.10,,,0.33,167.0,meteohub,2013-05-22 16:22:00,
2013-05-22 12:27:00,77.7,76.5,30.04,East,82,5.0,20.0,96,0.09,,,0.33,206.0,meteohub,2013-05-22 16:27:00,
2013-05-22 12:32:00,77.5,76.3,30.04,East,96,0.0,20.0,96,0.03,,,0.34,202.0,meteohub,2013-05-22 16:32:00,
2013-05-22 12:37:00,77.2,75.9,30.04,ESE,123,7.0,16.0,96,0.02,,,0.34,178.0,meteohub,2013-05-22 16:37:00,
2013-05-22 12:42:00,77.2,75.9,30.04,SE,126,0.0,15.0,96,0.01,,,0.34,153.0,meteohub,2013-05-22 16:42:00,
2013-05-22 12:47:00,77.2,75.9,30.04,SE,140,0.0,15.0,96,0.01,,,0.34,134.0,meteohub,2013-05-22 16:47:00,
2013-05-22 12:52:00,77.2,76.3,30.04,SSE,147,0.0,15.0,97,0.01,,,0.34,104.0,meteohub,2013-05-22 16:52:00,
2013-05-22 12:57:00,77.2,76.3,30.04,ESE,121,0.0,9.0,97,0.01,,,0.34,88.0,meteohub,2013-05-22 16:57:00,
2013-05-22 13:02:00,77.2,76.3,30.04,ENE,76,0.0,9.0,97,0.01,,,0.34,46.0,meteohub,2013-05-22 17:02:00,
2013-05-22 13:07:00,77.4,76.5,30.04,East,97,0.0,6.0,97,0.01,,,0.34,46.0,meteohub,2013-05-22 17:07:00,
2013-05-22 13:12:00,76.8,75.6,30.04,SE,128,6.0,6.0,96,0.01,,,0.34,51.0,meteohub,2013-05-22 17:12:00,
2013-05-22 13:17:00,75.7,74.5,30.04,East,95,5.0,16.0,96,0.02,,,0.35,58.0,meteohub,2013-05-22 17:17:00,
2013-05-22 13:22:00,75.7,74.8,30.04,SE,131,1.0,16.0,97,0.03,,,0.36,58.0,meteohub,2013-05-22 17:22:00,
2013-05-22 13:27:00,75.6,74.7,30.04,SE,143,0.0,16.0,97,0.02,,,0.36,51.0,meteohub,2013-05-22 17:27:00,
2013-05-22 13:33:00,75.7,74.8,30.04,ESE,107,8.0,10.0,97,0.03,,,0.37,44.0,meteohub,2013-05-22 17:33:00,
2013-05-22 13:38:00,75.9,75.4,30.04,ESE,107,4.0,8.0,98,0.03,,,0.37,33.0,meteohub,2013-05-22 17:38:00,
2013-05-22 13:43:00,75.9,75.4,30.04,East,88,6.0,12.0,98,0.04,,,0.38,33.0,meteohub,2013-05-22 17:43:00,
2013-05-22 13:48:00,75.9,75.4,30.04,ESE,103,0.0,12.0,98,0.04,,,0.38,39.0,meteohub,2013-05-22 17:48:00,
2013-05-22 13:53:00,75.9,75.6,30.04,ESE,107,0.0,12.0,99,0.04,,,0.38,48.0,meteohub,2013-05-22 17:53:00,
2013-05-22 13:58:00,75.9,75.6,30.04,East,100,0.0,11.0,99,0.04,,,0.38,55.0,meteohub,2013-05-22 17:58:00,
2013-05-22 14:03:00,75.9,75.6,30.04,SE,128,7.0,10.0,99,0.04,,,0.38,56.0,meteohub,2013-05-22 18:03:00,
2013-05-22 14:08:00,75.9,75.6,30.04,SE,130,0.0,9.0,99,0.04,,,0.38,55.0,meteohub,2013-05-22 18:08:00,
2013-05-22 14:13:00,75.9,75.9,30.03,SE,131,0.0,9.0,100,0.05,,,0.39,56.0,meteohub,2013-05-22 18:13:00,
2013-05-22 14:18:00,75.9,75.9,30.03,SE,130,0.0,9.0,100,0.04,,,0.39,60.0,meteohub,2013-05-22 18:18:00,
2013-05-22 14:23:00,76.1,76.1,30.03,SE,133,0.0,6.0,100,0.04,,,0.40,60.0,meteohub,2013-05-22 18:23:00,
2013-05-22 14:28:00,76.1,76.1,30.03,SE,128,0.0,0.0,100,0.04,,,0.40,62.0,meteohub,2013-05-22 18:28:00,
2013-05-22 14:33:00,75.9,75.9,30.03,ESE,116,0.0,0.0,100,0.04,,,0.41,63.0,meteohub,2013-05-22 18:33:00,
2013-05-22 14:38:00,75.9,75.9,30.03,ESE,114,0.0,0.0,100,0.04,,,0.41,63.0,meteohub,2013-05-22 18:38:00,
2013-05-22 14:43:00,75.9,75.9,30.02,ESE,117,0.0,0.0,100,0.05,,,0.43,62.0,meteohub,2013-05-22 18:43:00,
2013-05-22 14:48:00,75.9,75.9,30.02,ESE,119,0.0,0.0,100,0.06,,,0.44,58.0,meteohub,2013-05-22 18:48:00,
2013-05-22 14:53:00,76.1,76.1,30.02,ESE,117,0.0,0.0,100,0.06,,,0.44,53.0,meteohub,2013-05-22 18:53:00,
2013-05-22 14:58:00,76.1,76.1,30.02,ESE,117,0.0,0.0,100,0.09,,,0.47,51.0,meteohub,2013-05-22 18:58:00,
2013-05-22 15:03:00,75.9,75.9,30.02,ESE,117,0.0,0.0,100,0.11,,,0.48,39.0,meteohub,2013-05-22 19:03:00,
2013-05-22 15:08:00,76.1,76.1,30.02,ESE,117,0.0,0.0,100,0.11,,,0.49,46.0,meteohub,2013-05-22 19:08:00,
2013-05-22 15:13:00,75.9,75.9,30.02,ESE,116,0.0,0.0,100,0.12,,,0.51,37.0,meteohub,2013-05-22 19:13:00,
2013-05-22 15:18:00,76.1,76.1,30.02,ESE,116,0.0,0.0,100,0.12,,,0.51,28.0,meteohub,2013-05-22 19:18:00,
2013-05-22 15:24:00,75.9,75.9,30.02,ESE,117,0.0,0.0,100,0.12,,,0.52,25.0,meteohub,2013-05-22 19:24:00,
2013-05-22 15:29:00,76.1,76.1,30.02,ESE,117,0.0,0.0,100,0.12,,,0.53,25.0,meteohub,2013-05-22 19:29:00,
2013-05-22 15:34:00,75.9,75.9,30.02,SSE,167,3.0,0.0,100,0.13,,,0.54,32.0,meteohub,2013-05-22 19:34:00,
2013-05-22 15:39:00,75.9,75.9,30.02,SSE,168,0.0,0.0,100,0.12,,,0.54,33.0,meteohub,2013-05-22 19:39:00,
2013-05-22 15:44:00,75.9,75.9,30.01,SSE,168,0.0,6.0,100,0.11,,,0.54,53.0,meteohub,2013-05-22 19:44:00,
2013-05-22 15:49:00,76.1,76.1,30.01,SSE,167,0.0,6.0,100,0.10,,,0.54,70.0,meteohub,2013-05-22 19:49:00,
2013-05-22 15:54:00,76.3,76.3,30.01,SSE,168,0.0,0.0,100,0.10,,,0.55,65.0,meteohub,2013-05-22 19:54:00,
2013-05-22 15:59:00,76.3,76.3,30.01,SSE,168,0.0,0.0,100,0.08,,,0.55,69.0,meteohub,2013-05-22 19:59:00,
2013-05-22 16:04:00,76.3,76.3,30.01,SSE,168,0.0,0.0,100,0.06,,,0.55,72.0,meteohub,2013-05-22 20:04:00,
2013-05-22 16:09:00,76.3,76.3,30.01,SSE,168,0.0,0.0,100,0.06,,,0.55,53.0,meteohub,2013-05-22 20:09:00,
2013-05-22 16:14:00,76.3,76.3,30.02,SSE,167,0.0,0.0,100,0.04,,,0.55,35.0,meteohub,2013-05-22 20:14:00,
2013-05-22 16:19:00,76.3,76.3,30.02,South,172,0.0,0.0,100,0.04,,,0.55,25.0,meteohub,2013-05-22 20:19:00,
2013-05-22 16:24:00,76.1,76.1,30.02,South,181,0.0,1.0,100,0.03,,,0.55,18.0,meteohub,2013-05-22 20:24:00,
2013-05-22 16:29:00,76.1,76.1,30.03,South,174,7.0,7.0,100,0.02,,,0.55,9.0,meteohub,2013-05-22 20:29:00,
2013-05-22 16:34:00,75.4,75.4,30.03,SW,227,6.0,8.0,100,0.01,,,0.55,5.0,meteohub,2013-05-22 20:34:00,
2013-05-22 16:39:00,75.0,75.0,30.03,SSW,209,5.0,12.0,100,0.02,,,0.56,0.0,meteohub,2013-05-22 20:39:00,
2013-05-22 16:44:00,74.7,74.7,30.03,South,174,3.0,13.0,100,0.04,,,0.58,0.0,meteohub,2013-05-22 20:44:00,
2013-05-22 16:49:00,74.5,74.5,30.03,SE,145,0.0,13.0,100,0.03,,,0.58,5.0,meteohub,2013-05-22 20:49:00,
2013-05-22 16:54:00,74.7,74.7,30.03,South,179,6.0,13.0,100,0.04,,,0.59,0.0,meteohub,2013-05-22 20:54:00,
2013-05-22 16:59:00,74.7,74.7,30.02,SSW,192,0.0,13.0,100,0.04,,,0.59,0.0,meteohub,2013-05-22 20:59:00,
2013-05-22 17:04:00,74.7,74.7,30.02,South,188,0.0,7.0,100,0.04,,,0.59,0.0,meteohub,2013-05-22 21:04:00,
2013-05-22 17:09:00,74.7,74.7,30.02,SSW,210,0.0,6.0,100,0.04,,,0.59,0.0,meteohub,2013-05-22 21:09:00,
2013-05-22 17:14:00,74.7,74.7,30.02,SW,223,0.0,3.0,100,0.04,,,0.59,0.0,meteohub,2013-05-22 21:14:00,
2013-05-22 17:19:00,74.5,74.5,30.02,SSW,210,0.0,6.0,100,0.04,,,0.59,0.0,meteohub,2013-05-22 21:19:00,
2013-05-22 17:24:00,74.7,74.7,30.02,SSW,212,0.0,6.0,100,0.04,,,0.59,0.0,meteohub,2013-05-22 21:24:00,
2013-05-22 17:30:00,74.7,74.7,30.02,SSW,212,0.0,6.0,100,0.04,,,0.59,5.0,meteohub,2013-05-22 21:30:00,
2013-05-22 17:35:00,74.7,74.7,30.02,SSW,213,0.0,4.0,100,0.05,,,0.60,0.0,meteohub,2013-05-22 21:35:00,
2013-05-22 17:40:00,74.7,74.7,30.02,SSW,210,0.0,0.0,100,0.04,,,0.60,5.0,meteohub,2013-05-22 21:40:00,
2013-05-22 17:45:00,74.7,74.7,30.02,SSW,209,0.0,0.0,100,0.02,,,0.60,5.0,meteohub,2013-05-22 21:45:00,
2013-05-22 17:50:00,74.7,74.7,30.02,SSW,210,0.0,0.0,100,0.01,,,0.61,5.0,meteohub,2013-05-22 21:50:00,
2013-05-22 17:55:00,74.7,74.7,30.02,SSW,210,0.0,0.0,100,0.02,,,0.62,0.0,meteohub,2013-05-22 21:55:00,
2013-05-22 18:00:00,74.8,74.8,30.02,SSW,210,0.0,0.0,100,0.08,,,0.67,5.0,meteohub,2013-05-22 22:00:00,
2013-05-22 18:05:00,74.8,74.8,30.02,SSW,209,0.0,0.0,100,0.11,,,0.70,7.0,meteohub,2013-05-22 22:05:00,
2013-05-22 18:10:00,74.8,74.8,30.02,SSW,209,0.0,0.0,100,0.12,,,0.71,7.0,meteohub,2013-05-22 22:10:00,
2013-05-22 18:15:00,74.8,74.8,30.02,SSW,212,0.0,0.0,100,0.12,,,0.72,7.0,meteohub,2013-05-22 22:15:00,
2013-05-22 18:20:00,75.0,75.0,30.02,SSW,212,0.0,0.0,100,0.13,,,0.72,5.0,meteohub,2013-05-22 22:20:00,
2013-05-22 18:25:00,75.0,75.0,30.02,SSW,209,0.0,0.0,100,0.12,,,0.72,5.0,meteohub,2013-05-22 22:25:00,
2013-05-22 18:31:00,75.0,75.0,30.02,SSW,209,0.0,0.0,100,0.12,,,0.72,0.0,meteohub,2013-05-22 22:31:00,
2013-05-22 18:36:00,75.0,75.0,30.02,SSW,210,0.0,0.0,100,0.12,,,0.72,0.0,meteohub,2013-05-22 22:36:00,
2013-05-22 18:41:00,75.0,75.0,30.02,SSW,210,0.0,0.0,100,0.12,,,0.72,0.0,meteohub,2013-05-22 22:41:00,
2013-05-22 18:46:00,75.4,75.4,30.02,SSW,209,0.0,0.0,100,0.11,,,0.72,0.0,meteohub,2013-05-22 22:46:00,
2013-05-22 18:51:00,75.4,75.4,30.02,SSW,210,0.0,0.0,100,0.11,,,0.72,0.0,meteohub,2013-05-22 22:51:00,
2013-05-22 18:56:00,75.4,75.4,30.02,SSW,210,0.0,0.0,100,0.09,,,0.72,0.0,meteohub,2013-05-22 22:56:00,
2013-05-22 19:01:00,75.4,75.4,30.02,SSW,210,0.0,0.0,100,0.04,,,0.72,0.0,meteohub,2013-05-22 23:01:00,
2013-05-22 19:06:00,75.4,75.4,30.02,SSW,210,0.0,0.0,100,0.02,,,0.72,0.0,meteohub,2013-05-22 23:06:00,
2013-05-22 19:11:00,75.4,75.4,30.02,SSW,210,0.0,0.0,100,0.01,,,0.72,0.0,meteohub,2013-05-22 23:11:00,
2013-05-22 19:16:00,75.4,75.4,30.02,SSW,212,0.0,0.0,100,0.00,,,0.72,0.0,meteohub,2013-05-22 23:16:00,
2013-05-22 19:21:00,75.0,75.0,30.02,SSW,210,0.0,0.0,100,0.00,,,0.72,0.0,meteohub,2013-05-22 23:21:00,
2013-05-22 19:26:00,75.0,75.0,30.02,SSW,209,0.0,0.0,100,0.00,,,0.72,0.0,meteohub,2013-05-22 23:26:00,
2013-05-22 19:31:00,75.0,75.0,30.02,SSW,210,0.0,0.0,100,0.00,,,0.72,0.0,meteohub,2013-05-22 23:31:00,
2013-05-22 19:36:00,75.0,75.0,30.02,SSW,209,0.0,0.0,100,0.00,,,0.72,0.0,meteohub,2013-05-22 23:36:00,
2013-05-22 19:41:00,74.8,74.8,30.02,SSW,210,0.0,0.0,100,0.00,,,0.72,0.0,meteohub,2013-05-22 23:41:00,
2013-05-22 19:46:00,75.0,75.0,30.03,SSW,210,0.0,0.0,100,0.00,,,0.72,0.0,meteohub,2013-05-22 23:46:00,
2013-05-22 19:52:00,75.0,75.0,30.03,SSW,212,0.0,0.0,100,0.00,,,0.72,0.0,meteohub,2013-05-22 23:52:00,
2013-05-22 19:57:00,75.0,75.0,30.03,SSW,209,0.0,0.0,100,0.00,,,0.72,0.0,meteohub,2013-05-22 23:57:00,
2013-05-22 20:02:00,75.0,75.0,30.04,SSW,209,0.0,0.0,100,0.00,,,0.72,0.0,meteohub,2013-05-23 00:02:00,
2013-05-22 20:07:00,75.0,75.0,30.04,SSW,208,0.0,2.0,100,0.00,,,0.72,0.0,meteohub,2013-05-23 00:07:00,
2013-05-22 20:12:00,75.0,75.0,30.04,SSW,206,0.0,2.0,100,0.00,,,0.72,0.0,meteohub,2013-05-23 00:12:00,
2013-05-22 20:17:00,75.0,75.0,30.04,SSW,206,0.0,2.0,100,0.00,,,0.72,0.0,meteohub,2013-05-23 00:17:00,
2013-05-22 20:22:00,75.0,75.0,30.04,SSW,206,0.0,0.0,100,0.00,,,0.72,0.0,meteohub,2013-05-23 00:22:00,
2013-05-22 20:27:00,75.0,75.0,30.04,SSW,206,0.0,0.0,100,0.00,,,0.72,0.0,meteohub,2013-05-23 00:27:00,
2013-05-22 20:32:00,75.0,75.0,30.05,SSW,206,0.0,0.0,100,0.00,,,0.72,0.0,meteohub,2013-05-23 00:32:00,
2013-05-22 20:37:00,75.0,75.0,30.05,SSW,208,0.0,0.0,100,0.00,,,0.72,0.0,meteohub,2013-05-23 00:37:00,
2013-05-22 20:42:00,75.0,75.0,30.05,SSW,203,0.0,0.0,100,0.00,,,0.72,0.0,meteohub,2013-05-23 00:42:00,
2013-05-22 20:47:00,75.0,75.0,30.05,SSW,202,0.0,0.0,100,0.00,,,0.72,0.0,meteohub,2013-05-23 00:47:00,
2013-05-22 20:52:00,74.8,74.8,30.05,SSW,203,0.0,0.0,100,0.00,,,0.72,0.0,meteohub,2013-05-23 00:52:00,
2013-05-22 20:57:00,74.8,74.8,30.05,ESE,120,0.0,0.0,100,0.00,,,0.72,0.0,meteohub,2013-05-23 00:57:00,
2013-05-22 21:02:00,74.8,74.8,30.05,ESE,112,0.0,3.0,100,0.00,,,0.72,0.0,meteohub,2013-05-23 01:02:00,
2013-05-22 21:08:00,74.8,74.8,30.05,ESE,104,0.0,3.0,100,0.00,,,0.72,0.0,meteohub,2013-05-23 01:08:00,
2013-05-22 21:13:00,74.8,74.8,30.05,ESE,106,0.0,3.0,100,0.00,,,0.72,0.0,meteohub,2013-05-23 01:13:00,
2013-05-22 21:18:00,75.0,75.0,30.05,ESE,106,0.0,0.0,100,0.00,,,0.72,0.0,meteohub,2013-05-23 01:18:00,
2013-05-22 21:23:00,75.0,75.0,30.05,East,85,0.0,0.0,100,0.00,,,0.72,0.0,meteohub,2013-05-23 01:23:00,
2013-05-22 21:28:00,75.4,75.4,30.06,East,89,0.0,1.0,100,0.00,,,0.72,0.0,meteohub,2013-05-23 01:28:00,
2013-05-22 21:33:00,75.4,75.4,30.06,East,89,0.0,1.0,100,0.00,,,0.72,0.0,meteohub,2013-05-23 01:33:00,
2013-05-22 21:38:00,75.4,75.4,30.06,SE,131,0.0,4.0,100,0.00,,,0.72,0.0,meteohub,2013-05-23 01:38:00,
2013-05-22 21:43:00,75.6,75.6,30.07,SE,127,0.0,4.0,100,0.00,,,0.72,0.0,meteohub,2013-05-23 01:43:00,
2013-05-22 21:48:00,75.6,75.6,30.07,SE,131,0.0,4.0,100,0.00,,,0.72,0.0,meteohub,2013-05-23 01:48:00,
2013-05-22 21:53:00,75.7,75.7,30.07,SE,133,0.0,0.0,100,0.00,,,0.72,0.0,meteohub,2013-05-23 01:53:00,
2013-05-22 21:58:00,75.7,75.4,30.08,SE,131,0.0,0.0,99,0.00,,,0.72,0.0,meteohub,2013-05-23 01:58:00,
2013-05-22 22:03:00,75.6,75.2,30.08,SE,131,0.0,0.0,99,0.00,,,0.72,0.0,meteohub,2013-05-23 02:03:00,
2013-05-22 22:09:00,75.6,75.2,30.08,SE,131,0.0,0.0,99,0.00,,,0.72,0.0,meteohub,2013-05-23 02:09:00,
2013-05-22 22:13:00,75.6,75.2,30.08,SE,131,0.0,0.0,99,0.00,,,0.72,0.0,meteohub,2013-05-23 02:13:00,
2013-05-22 22:19:00,75.6,75.2,30.08,SE,131,0.0,0.0,99,0.00,,,0.72,0.0,meteohub,2013-05-23 02:19:00,
2013-05-22 22:24:00,75.6,75.2,30.08,SE,131,0.0,0.0,99,0.00,,,0.72,0.0,meteohub,2013-05-23 02:24:00,
2013-05-22 22:29:00,75.6,75.2,30.08,SE,131,0.0,0.0,99,0.00,,,0.72,0.0,meteohub,2013-05-23 02:29:00,
2013-05-22 22:34:00,75.6,75.2,30.08,SE,131,0.0,0.0,99,0.00,,,0.72,0.0,meteohub,2013-05-23 02:34:00,
2013-05-22 22:39:00,75.6,75.2,30.08,SE,130,0.0,0.0,99,0.00,,,0.72,0.0,meteohub,2013-05-23 02:39:00,
2013-05-22 22:44:00,75.6,75.0,30.08,SE,133,0.0,0.0,98,0.00,,,0.72,0.0,meteohub,2013-05-23 02:44:00,
2013-05-22 22:49:00,75.6,75.0,30.08,SE,131,0.0,0.0,98,0.00,,,0.72,0.0,meteohub,2013-05-23 02:49:00,
2013-05-22 22:54:00,75.4,74.8,30.08,SE,131,0.0,0.0,98,0.00,,,0.72,0.0,meteohub,2013-05-23 02:54:00,
2013-05-22 22:59:00,75.4,74.8,30.08,SE,131,0.0,0.0,98,0.00,,,0.72,0.0,meteohub,2013-05-23 02:59:00,
2013-05-22 23:04:00,75.4,74.8,30.08,SE,131,0.0,0.0,98,0.00,,,0.72,0.0,meteohub,2013-05-23 03:04:00,
2013-05-22 23:09:00,75.4,74.8,30.08,SE,131,0.0,0.0,98,0.00,,,0.72,0.0,meteohub,2013-05-23 03:09:00,
2013-05-22 23:14:00,75.4,74.8,30.08,SE,133,0.0,0.0,98,0.00,,,0.72,0.0,meteohub,2013-05-23 03:14:00,
2013-05-22 23:19:00,75.4,74.8,30.08,SE,131,0.0,0.0,98,0.00,,,0.72,0.0,meteohub,2013-05-23 03:19:00,
2013-05-22 23:24:00,75.4,74.8,30.08,SE,131,0.0,0.0,98,0.00,,,0.72,0.0,meteohub,2013-05-23 03:24:00,
2013-05-22 23:29:00,75.4,74.8,30.07,SE,131,0.0,0.0,98,0.00,,,0.72,0.0,meteohub,2013-05-23 03:29:00,
2013-05-22 23:34:00,75.4,74.8,30.07,SE,133,0.0,0.0,98,0.00,,,0.72,0.0,meteohub,2013-05-23 03:34:00,
2013-05-22 23:39:00,75.4,75.0,30.07,SE,133,0.0,0.0,99,0.00,,,0.72,0.0,meteohub,2013-05-23 03:39:00,
2013-05-22 23:44:00,75.0,74.7,30.07,SE,133,0.0,0.0,99,0.00,,,0.72,0.0,meteohub,2013-05-23 03:44:00,
2013-05-22 23:49:00,75.0,74.7,30.07,SE,133,0.0,0.0,99,0.00,,,0.72,0.0,meteohub,2013-05-23 03:49:00,
2013-05-22 23:54:00,75.0,74.7,30.07,SE,131,0.0,0.0,99,0.00,,,0.72,0.0,meteohub,2013-05-23 03:54:00,
2013-05-22 23:59:00,75.0,74.7,30.06,SE,133,0.0,0.0,99,0.00,,,0.72,0.0,meteohub,2013-05-23 03:59:00,